This is the latest recevied weather packets stored in our database for station/object WP3OF. If no packets are shown the sender has not sent any weather packets the latest 1 day(s).
| Time | Temp. | Humidity | Pressure | Rain* | Wind** | Luminosity | Snow |
|---|---|---|---|---|---|---|---|
| 1778000722 | - | - | - | 0 mm | 5.36 m/s, 45° | - | - |
| 1778000418 | - | - | - | 0 mm | 3.13 m/s, 44° | - | - |
| 1778000114 | - | - | - | 0 mm | 4.02 m/s, 28° | - | - |
| 1777999809 | - | - | - | 0 mm | 4.02 m/s, 71° | - | - |
| 1777999506 | - | - | - | 0 mm | 4.02 m/s, 45° | - | - |
| 1777999204 | - | - | - | 0 mm | 2.68 m/s, 40° | - | - |
| 1777998902 | - | - | - | 0 mm | 4.02 m/s, 40° | - | - |
| 1777998602 | - | - | - | 0 mm | 4.47 m/s, 32° | - | - |
| 1777998297 | - | - | - | 0 mm | 4.47 m/s, 32° | - | - |
| 1777997993 | - | - | - | 0 mm | 4.02 m/s, 35° | - | - |
| 1777997690 | - | - | - | 0 mm | 4.92 m/s, 21° | - | - |
| 1777997388 | - | - | - | 0 mm | 4.92 m/s, 17° | - | - |
| 1777997080 | - | - | - | 0 mm | 4.02 m/s, 352° | - | - |
| 1777996776 | - | - | - | 0 mm | 4.02 m/s, 19° | - | - |
| 1777996472 | - | - | - | 0 mm | 4.92 m/s, 18° | - | - |
| 1777996170 | - | - | - | 0 mm | 4.02 m/s, 21° | - | - |
| 1777995866 | - | - | - | 0 mm | 4.02 m/s, 22° | - | - |
| 1777995562 | - | - | - | 0 mm | 3.13 m/s, 27° | - | - |
| 1777995260 | - | - | - | 0 mm | 3.58 m/s, 30° | - | - |
| 1777994956 | - | - | - | 0 mm | 4.02 m/s, 16° | - | - |
| 1777994653 | - | - | - | 0 mm | 4.47 m/s, 20° | - | - |
| 1777994348 | - | - | - | 0 mm | 3.13 m/s, 29° | - | - |
| 1777994045 | - | - | - | 0 mm | 3.58 m/s, 4° | - | - |
| 1777993742 | - | - | - | 0 mm | 2.68 m/s, 17° | - | - |
| 1777993439 | - | - | - | 0 mm | 2.68 m/s, 24° | - | - |
* Rain latest hour (hover to see other rain measurements)
** Current wind speed in m/s (hover to see current wind gust speed)